CW2401 Weather Reports


Display with metric or nautical units.
time (UTC)temp
F
wind
direction
speed
MPH
gust
MPH
rain 1hr
in
rain 24hr
in
rain mn
in
humidity
%
barometer
mb
20260504191939 77 111 1.0 4.0 0.00 0.00 0.00 37 1015.1
20260504191739 76 57 1.0 4.0 0.00 0.00 0.00 36 1015.1
20260504191537 76 80 1.0 4.0 0.00 0.00 0.00 37 1015.2
20260504191335 76 80 1.0 4.0 0.00 0.00 0.00 37 1015.2
20260504191134 76 13 1.0 4.0 0.00 0.00 0.00 37 1015.3
20260504190934 76 5 1.0 5.0 0.00 0.00 0.00 36 1015.4
20260504190733 76 311 2.0 5.0 0.00 0.00 0.00 36 1015.4
20260504190534 76 306 2.0 5.0 0.00 0.00 0.00 36 1015.4
20260504190136 76 309 2.0 5.0 0.00 0.00 0.00 38 1015.4
20260504185934 76 184 2.0 5.0 0.00 0.00 0.00 37 1015.4
20260504185734 76 311 2.0 4.0 0.00 0.00 0.00 36 1015.3
20260504185535 76 113 2.0 4.0 0.00 0.00 0.00 35 1015.3
20260504185134 76 293 2.0 5.0 0.00 0.00 0.00 35 1015.4
20260504184732 76 270 2.0 6.0 0.00 0.00 0.00 36 1015.4
20260504184532 76 305 2.0 6.0 0.00 0.00 0.00 37 1015.5
20260504184332 76 355 2.0 6.0 0.00 0.00 0.00 37 1015.4
20260504184131 76 299 1.0 6.0 0.00 0.00 0.00 36 1015.4
20260504183732 76 109 1.0 4.0 0.00 0.00 0.00 37 1015.5
20260504183530 76 109 1.0 4.0 0.00 0.00 0.00 36 1015.4
20260504183330 76 107 1.0 4.0 0.00 0.00 0.00 36 1015.5
20260504183129 76 110 1.0 4.0 0.00 0.00 0.00 38 1015.5
20260504182931 75 88 1.0 3.0 0.00 0.00 0.00 38 1015.5
20260504182530 75 87 2.0 6.0 0.00 0.00 0.00 37 1015.5
20260504182130 75 146 2.0 6.0 0.00 0.00 0.00 38 1015.8
20260504181931 75 166 1.0 6.0 0.00 0.00 0.00 36 1015.8
20260504181729 75 98 1.0 4.0 0.00 0.00 0.00 39 1015.9
20260504180927 74 40 2.0 5.0 0.00 0.00 0.00 38 1015.9
20260504175723 74 44 1.0 3.0 0.00 0.00 0.00 38 1015.8
20260504175519 74 30 2.0 3.0 0.00 0.00 0.00 40 1015.9
20260504175319 74 342 2.0 4.0 0.00 0.00 0.00 39 1015.9
20260504175119 74 309 1.0 4.0 0.00 0.00 0.00 38 1015.9
20260504174920 74 38 1.0 4.0 0.00 0.00 0.00 38 1015.9
20260504174719 74 299 1.0 4.0 0.00 0.00 0.00 39 1016.1
20260504174319 74 147 1.0 3.0 0.00 0.00 0.00 39 1015.9
20260504174120 74 146 2.0 3.0 0.00 0.00 0.00 38 1015.9
20260504173921 74 153 2.0 5.0 0.00 0.00 0.00 39 1016.1
20260504173721 74 236 2.0 5.0 0.00 0.00 0.00 39 1016.1
20260504173519 74 236 2.0 5.0 0.00 0.00 0.00 38 1016.1
20260504173320 74 322 2.0 5.0 0.00 0.00 0.00 39 1016.1
20260504173120 74 343 2.0 5.0 0.00 0.00 0.00 39 1016.1
20260504172920 74 14 2.0 4.0 0.00 0.00 0.00 40 1016.1
20260504172720 73 98 2.0 4.0 0.00 0.00 0.00 40 1016.2
20260504172518 73 202 2.0 5.0 0.00 0.00 0.00 40 1016.2
20260504172319 73 45 1.0 5.0 0.00 0.00 0.00 41 1016.2
20260504172119 73 53 1.0 5.0 0.00 0.00 0.00 40 1016.2
20260504171718 73 349 2.0 5.0 0.00 0.00 0.00 40 1016.2
20260504171315 73 167 2.0 5.0 0.00 0.00 0.00 37 1016.3
20260504170916 73 237 1.0 5.0 0.00 0.00 0.00 40 1016.4
20260504170716 73 5 1.0 5.0 0.00 0.00 0.00 39 1016.5
20260504170516 73 0 1.0 5.0 0.00 0.00 0.00 41 1016.6
20260504170315 73 5 2.0 5.0 0.00 0.00 0.00 42 1016.6
20260504170113 73 0 2.0 5.0 0.00 0.00 0.00 41 1016.6
20260504160305 71 146 1.0 4.0 0.00 0.00 0.00 44 1017.5
20260504160108 71 175 1.0 3.0 0.00 0.00 0.00 45 1017.6
20260504151107 70 177 1.0 4.0 0.00 0.00 0.00 51 1017.8
20260504150706 70 117 1.0 4.0 0.00 0.00 0.00 54 1017.7
20260504150506 70 117 1.0 4.0 0.00 0.00 0.00 55 1017.7
20260504150305 69 117 1.0 4.0 0.00 0.00 0.00 55 1017.7
20260504150106 69 117 1.0 4.0 0.00 0.00 0.00 54 1017.7
20260504141302 67 113 0.0 2.0 0.00 0.00 0.00 59 1018.0
20260504141102 67 113 0.0 2.0 0.00 0.00 0.00 59 1018.0
20260504140658 67 112 0.0 2.0 0.00 0.00 0.00 63 1018.0
20260504140457 66 111 0.0 2.0 0.00 0.00 0.00 65 1017.9
20260504130431 49 229 0.0 0.0 0.00 0.00 0.00 93 1018.0
20260504130228 49 229 0.0 0.0 0.00 0.00 0.00 93 1017.9
20260504120147 42 229 0.0 0.0 0.00 0.00 0.00 92 1018.3
20260504110124 39 229 0.0 0.0 0.00 0.00 0.00 91 1018.6
20260504081954 40 229 0.0 0.0 0.00 0.00 0.00 90 1018.1
20260504081753 40 229 0.0 0.0 0.00 0.00 0.00 90 1018.1
20260504081554 40 229 0.0 0.0 0.00 0.00 0.00 90 1018.1
20260504081352 40 229 0.0 0.0 0.00 0.00 0.00 89 1018.1
20260504081149 40 229 0.0 0.0 0.00 0.00 0.00 90 1018.1
20260504080947 40 229 0.0 0.0 0.00 0.00 0.00 90 1018.1
20260504080746 40 229 0.0 0.0 0.00 0.00 0.00 90 1018.1
20260504080549 40 229 0.0 0.0 0.00 0.00 0.00 90 1018.1
20260504080345 40 229 0.0 0.0 0.00 0.00 0.00 90 1018.0
20260504080143 40 229 0.0 0.0 0.00 0.00 0.00 90 1018.1
20260504070320 41 229 0.0 0.0 0.00 0.00 0.00 89 1017.9
20260504070118 41 229 0.0 0.0 0.00 0.00 0.00 89 1017.9
20260504050623 42 229 0.0 0.0 0.00 0.00 0.00 87 1018.5
20260504050425 42 229 0.0 0.0 0.00 0.00 0.00 87 1018.5
20260504050223 42 229 0.0 0.0 0.00 0.00 0.00 87 1018.5
20260504050020 42 229 0.0 0.0 0.00 0.00 0.00 87 1018.5
20260504045820 42 229 0.0 0.0 0.00 0.00 0.00 87 1018.5
20260504045620 42 229 0.0 0.0 0.00 0.00 0.00 87 1018.4
20260504045418 42 229 0.0 0.0 0.00 0.00 0.00 87 1018.4
20260504045220 42 229 0.0 0.0 0.00 0.00 0.00 87 1018.4
20260504045018 42 229 0.0 0.0 0.00 0.00 0.00 87 1018.4
20260504044815 42 229 0.0 0.0 0.00 0.00 0.00 87 1018.3
20260504044414 42 229 0.0 0.0 0.00 0.00 0.00 87 1018.3
20260504044210 43 229 0.0 0.0 0.00 0.00 0.00 86 1018.3
20260504044011 43 229 0.0 0.0 0.00 0.00 0.00 87 1018.4
20260504043811 43 229 0.0 0.0 0.00 0.00 0.00 86 1018.4
20260504043610 43 229 0.0 0.0 0.00 0.00 0.00 86 1018.4
20260504043408 43 229 0.0 0.0 0.00 0.00 0.00 86 1018.4
20260504043008 43 229 0.0 0.0 0.00 0.00 0.00 86 1018.4
20260504042604 43 229 0.0 0.0 0.00 0.00 0.00 86 1018.4
20260504042205 43 229 0.0 0.0 0.00 0.00 0.00 86 1018.5
20260504042005 43 229 0.0 0.0 0.00 0.00 0.00 86 1018.4
20260504041405 43 229 0.0 0.0 0.00 0.00 0.00 85 1018.4
20260504041205 44 229 0.0 0.0 0.00 0.00 0.00 85 1018.4
20260504041006 44 229 0.0 0.0 0.00 0.00 0.00 85 1018.4
20260504040805 44 229 0.0 0.0 0.00 0.00 0.00 85 1018.4
20260504040605 44 229 0.0 0.0 0.00 0.00 0.00 85 1018.4
20260504040004 44 229 0.0 0.0 0.00 0.00 0.00 85 1018.4
20260504035601 44 229 0.0 0.0 0.00 0.00 0.00 84 1018.4
20260504035359 44 229 0.0 0.0 0.00 0.00 0.00 84 1018.3
20260504035159 44 229 0.0 0.0 0.00 0.00 0.00 84 1018.3
20260504034556 44 229 0.0 0.0 0.00 0.00 0.00 84 1018.3
20260504034356 44 229 0.0 0.0 0.00 0.00 0.00 84 1018.3
20260504034154 44 229 0.0 0.0 0.00 0.00 0.00 83 1018.3
20260504033954 45 229 0.0 0.0 0.00 0.00 0.00 83 1018.4
20260504033755 45 229 0.0 0.0 0.00 0.00 0.00 83 1018.4
20260504032948 45 229 0.0 0.0 0.00 0.00 0.00 83 1018.4
20260504032747 45 229 0.0 0.0 0.00 0.00 0.00 83 1018.4
20260504032544 45 229 0.0 0.0 0.00 0.00 0.00 82 1018.4
20260504032346 45 229 0.0 0.0 0.00 0.00 0.00 82 1018.4
20260504031942 45 229 0.0 0.0 0.00 0.00 0.00 83 1018.4
20260504031741 45 229 0.0 0.0 0.00 0.00 0.00 82 1018.4
20260504031540 45 229 0.0 0.0 0.00 0.00 0.00 82 1018.4
20260504031339 45 229 0.0 0.0 0.00 0.00 0.00 82 1018.3
20260504031136 45 229 0.0 0.0 0.00 0.00 0.00 82 1018.3
20260504030934 46 229 0.0 0.0 0.00 0.00 0.00 82 1018.3
20260504030733 46 229 0.0 0.0 0.00 0.00 0.00 82 1018.2
20260504030531 46 229 0.0 0.0 0.00 0.00 0.00 82 1018.2
20260504030330 46 229 0.0 0.0 0.00 0.00 0.00 82 1018.2
20260504025930 46 229 0.0 0.0 0.00 0.00 0.00 81 1018.2
20260504025732 46 229 0.0 0.0 0.00 0.00 0.00 81 1018.3
20260504025531 46 229 0.0 0.0 0.00 0.00 0.00 81 1018.3
20260504025331 46 229 0.0 0.0 0.00 0.00 0.00 81 1018.3
20260504025130 46 229 0.0 0.0 0.00 0.00 0.00 81 1018.3
20260504024729 46 229 0.0 0.0 0.00 0.00 0.00 80 1018.2
20260504024528 46 229 0.0 0.0 0.00 0.00 0.00 80 1018.3
20260504023924 47 229 0.0 0.0 0.00 0.00 0.00 80 1018.1
20260504023721 47 229 0.0 0.0 0.00 0.00 0.00 80 1018.1
20260504023520 47 229 0.0 0.0 0.00 0.00 0.00 80 1018.1
20260504023318 47 229 0.0 0.0 0.00 0.00 0.00 79 1018.0
20260504023116 47 229 0.0 0.0 0.00 0.00 0.00 79 1018.0
20260504022916 47 229 0.0 0.0 0.00 0.00 0.00 79 1018.0
20260504022715 47 229 0.0 0.0 0.00 0.00 0.00 79 1018.0
20260504022513 47 229 0.0 0.0 0.00 0.00 0.00 79 1017.9
20260504022310 47 229 0.0 0.0 0.00 0.00 0.00 79 1017.9
20260504022111 48 229 0.0 0.0 0.00 0.00 0.00 78 1017.9
20260504021910 48 229 0.0 0.0 0.00 0.00 0.00 78 1018.0
20260504021708 48 229 0.0 0.0 0.00 0.00 0.00 78 1018.0
20260504021508 48 229 0.0 0.0 0.00 0.00 0.00 78 1018.0
20260504021308 48 229 0.0 0.0 0.00 0.00 0.00 78 1018.0
20260504021106 48 229 0.0 0.0 0.00 0.00 0.00 78 1017.9
20260504020906 48 229 0.0 0.0 0.00 0.00 0.00 78 1017.9
20260504020503 48 229 0.0 0.0 0.00 0.00 0.00 77 1018.0
20260504020305 49 229 0.0 0.0 0.00 0.00 0.00 76 1017.9
20260504015858 49 229 0.0 0.0 0.00 0.00 0.00 76 1017.9
20260504015658 49 229 0.0 0.0 0.00 0.00 0.00 75 1018.0
20260504015457 49 229 0.0 0.0 0.00 0.00 0.00 75 1018.0
20260504015258 49 229 0.0 0.0 0.00 0.00 0.00 75 1018.0
20260504015057 49 229 0.0 0.0 0.00 0.00 0.00 74 1018.0
20260504014855 49 229 0.0 0.0 0.00 0.00 0.00 74 1018.0
20260504014654 49 229 0.0 0.0 0.00 0.00 0.00 74 1018.0
20260504014456 49 229 0.0 0.0 0.00 0.00 0.00 74 1018.0
20260504014255 50 229 0.0 0.0 0.00 0.00 0.00 73 1017.9
20260504014054 50 229 0.0 0.0 0.00 0.00 0.00 73 1017.9
20260504013851 50 229 0.0 0.0 0.00 0.00 0.00 73 1018.0
20260504013652 50 229 0.0 0.0 0.00 0.00 0.00 72 1018.0
20260504013452 50 229 0.0 0.0 0.00 0.00 0.00 72 1017.9
20260504013249 51 229 0.0 0.0 0.00 0.00 0.00 71 1017.9
20260504013046 51 229 0.0 0.0 0.00 0.00 0.00 71 1017.9
20260504012845 51 229 0.0 0.0 0.00 0.00 0.00 71 1017.9
20260504012646 51 229 0.0 0.0 0.00 0.00 0.00 70 1017.9
20260504012445 51 229 0.0 0.0 0.00 0.00 0.00 69 1017.9
20260504012244 51 229 0.0 0.0 0.00 0.00 0.00 69 1017.9
20260504012042 51 229 0.0 0.0 0.00 0.00 0.00 68 1017.9
20260504011842 51 229 0.0 0.0 0.00 0.00 0.00 67 1017.8
20260504011642 51 229 0.0 0.0 0.00 0.00 0.00 68 1017.8
20260504011444 51 229 0.0 0.0 0.00 0.00 0.00 67 1017.8
20260504011243 51 229 0.0 0.0 0.00 0.00 0.00 67 1017.8
20260504010840 52 229 0.0 0.0 0.00 0.00 0.00 66 1017.7
20260504010636 52 229 0.0 0.0 0.00 0.00 0.00 66 1017.6
20260504010436 52 229 0.0 0.0 0.00 0.00 0.00 66 1017.6
20260504010236 52 229 0.0 0.0 0.00 0.00 0.00 65 1017.6
20260504010037 53 229 0.0 0.0 0.00 0.00 0.00 65 1017.5
20260504005834 53 229 0.0 0.0 0.00 0.00 0.00 64 1017.4
20260504005634 53 229 0.0 0.0 0.00 0.00 0.00 64 1017.4
20260504005434 53 229 0.0 0.0 0.00 0.00 0.00 63 1017.4
20260504005234 53 229 0.0 0.0 0.00 0.00 0.00 63 1017.3
20260504004432 54 229 0.0 0.0 0.00 0.00 0.00 60 1017.4
20260504004232 54 229 0.0 0.0 0.00 0.00 0.00 60 1017.3
20260504004033 54 229 0.0 0.0 0.00 0.00 0.00 60 1017.3
20260504003832 54 229 0.0 0.0 0.00 0.00 0.00 59 1017.4
20260504003633 54 229 0.0 0.0 0.00 0.00 0.00 58 1017.4
20260504003432 55 229 0.0 0.0 0.00 0.00 0.00 58 1017.3
20260504003232 55 229 0.0 0.0 0.00 0.00 0.00 58 1017.3
20260504003030 55 229 0.0 0.0 0.00 0.00 0.00 57 1017.3
20260504002632 56 229 0.0 0.0 0.00 0.00 0.00 56 1017.2
20260504002430 56 229 0.0 0.0 0.00 0.00 0.00 55 1017.3
20260504002230 56 229 0.0 0.0 0.00 0.00 0.00 55 1017.3
20260504002030 56 229 0.0 0.0 0.00 0.00 0.00 54 1017.2
20260504001828 56 229 0.0 0.0 0.00 0.00 0.00 54 1017.2
20260504001629 57 229 0.0 0.0 0.00 0.00 0.00 53 1017.2
20260504001428 57 229 0.0 0.0 0.00 0.00 0.00 53 1017.2
20260504000828 58 229 0.0 0.0 0.00 0.00 0.00 52 1017.1
20260504000629 58 229 0.0 0.0 0.00 0.00 0.00 51 1017.1
20260504000227 58 229 0.0 0.0 0.00 0.00 0.00 51 1017.1
20260504000026 58 229 0.0 0.0 0.00 0.00 0.00 50 1017.0
20260503235626 59 229 0.0 0.0 0.00 0.00 0.00 49 1017.0
20260503235227 59 229 0.0 0.0 0.00 0.00 0.00 48 1017.0
20260503234826 60 229 0.0 0.0 0.00 0.00 0.00 47 1017.0
20260503234626 60 229 0.0 0.0 0.00 0.00 0.00 47 1016.9
20260503234427 60 229 0.0 0.0 0.00 0.00 0.00 47 1016.9
20260503234026 60 229 0.0 0.0 0.00 0.00 0.00 46 1016.8
20260503233828 60 229 0.0 0.0 0.00 0.00 0.00 46 1016.8
20260503233629 61 229 0.0 0.0 0.00 0.00 0.00 45 1016.8
20260503233426 61 229 0.0 0.0 0.00 0.00 0.00 45 1016.8
20260503233227 61 229 0.0 0.0 0.00 0.00 0.00 45 1016.8
20260503233027 61 229 0.0 0.0 0.00 0.00 0.00 44 1016.8
20260503232826 61 229 0.0 0.0 0.00 0.00 0.00 44 1016.8
20260503232628 61 229 0.0 0.0 0.00 0.00 0.00 44 1016.8
20260503232426 62 229 0.0 0.0 0.00 0.00 0.00 44 1016.8
20260503232228 62 229 0.0 0.0 0.00 0.00 0.00 44 1016.8
20260503232025 62 229 0.0 0.0 0.00 0.00 0.00 44 1016.8
20260503231827 62 229 0.0 0.0 0.00 0.00 0.00 43 1016.8
20260503231626 62 229 0.0 0.0 0.00 0.00 0.00 43 1016.8
20260503231426 62 229 0.0 0.0 0.00 0.00 0.00 45 1016.8
20260503231228 62 229 0.0 0.0 0.00 0.00 0.00 45 1016.8
20260503231026 62 240 0.0 0.0 0.00 0.00 0.00 45 1016.9
20260503230827 63 240 0.0 0.0 0.00 0.00 0.00 43 1016.9
20260503230626 63 240 0.0 0.0 0.00 0.00 0.00 43 1016.9
20260503230427 63 240 0.0 0.0 0.00 0.00 0.00 41 1016.9
20260503230227 63 240 0.0 0.0 0.00 0.00 0.00 41 1016.9
20260503230026 63 240 0.0 0.0 0.00 0.00 0.00 41 1017.0
20260503225629 63 240 0.0 3.0 0.00 0.00 0.00 42 1017.0
20260503225428 64 240 1.0 5.0 0.00 0.00 0.00 44 1016.9
20260503225226 64 240 1.0 5.0 0.00 0.00 0.00 43 1016.9
20260503225026 64 240 1.0 5.0 0.00 0.00 0.00 37 1016.9
20260503224826 64 239 1.0 5.0 0.00 0.00 0.00 40 1016.9
20260503224626 64 355 1.0 5.0 0.00 0.00 0.00 37 1016.9
20260503224426 64 346 1.0 3.0 0.00 0.00 0.00 40 1017.0
20260503224226 64 78 1.0 3.0 0.00 0.00 0.00 44 1017.0
20260503224026 64 17 1.0 3.0 0.00 0.00 0.00 44 1017.0
20260503223827 64 44 1.0 4.0 0.00 0.00 0.00 39 1017.0
20260503223628 64 44 1.0 4.0 0.00 0.00 0.00 37 1017.0
20260503223427 64 38 1.0 4.0 0.00 0.00 0.00 39 1017.0
20260503223226 64 346 1.0 4.0 0.00 0.00 0.00 38 1017.1
20260503223027 64 348 1.0 4.0 0.00 0.00 0.00 41 1017.1
20260503222825 64 44 1.0 4.0 0.00 0.00 0.00 37 1017.1
20260503222623 64 44 1.0 4.0 0.00 0.00 0.00 38 1017.2
20260503222421 64 344 1.0 4.0 0.00 0.00 0.00 38 1017.1
20260503222220 64 355 1.0 3.0 0.00 0.00 0.00 37 1017.2
20260503222020 65 279 1.0 3.0 0.00 0.00 0.00 42 1017.2
20260503221820 65 329 1.0 3.0 0.00 0.00 0.00 43 1017.2
20260503221622 65 328 1.0 3.0 0.00 0.00 0.00 40 1017.2
20260503221422 65 328 1.0 3.0 0.00 0.00 0.00 36 1017.2
20260503221219 65 315 1.0 3.0 0.00 0.00 0.00 37 1017.2
20260503221018 65 293 1.0 2.0 0.00 0.00 0.00 40 1017.1
20260503220618 65 212 1.0 2.0 0.00 0.00 0.00 36 1017.1
20260503220215 65 211 1.0 2.0 0.00 0.00 0.00 40 1017.1
20260503220014 65 306 2.0 5.0 0.00 0.00 0.00 41 1017.1
20260503215609 65 271 1.0 5.0 0.00 0.00 0.00 37 1017.2
20260503215406 65 337 1.0 5.0 0.00 0.00 0.00 40 1017.2
20260503215203 65 331 1.0 5.0 0.00 0.00 0.00 38 1017.1
20260503215003 65 70 1.0 3.0 0.00 0.00 0.00 37 1017.1
20260503214802 65 5 1.0 3.0 0.00 0.00 0.00 39 1017.1
20260503214602 65 5 1.0 3.0 0.00 0.00 0.00 41 1017.1
20260503214400 65 5 1.0 5.0 0.00 0.00 0.00 40 1017.1
20260503213958 65 0 1.0 5.0 0.00 0.00 0.00 36 1017.2
20260503213757 65 0 1.0 5.0 0.00 0.00 0.00 37 1017.2
20260503213556 65 0 2.0 5.0 0.00 0.00 0.00 37 1017.2
20260503213352 65 74 1.0 5.0 0.00 0.00 0.00 36 1017.3
20260503212952 65 178 1.0 5.0 0.00 0.00 0.00 39 1017.4
20260503212754 65 165 1.0 4.0 0.00 0.00 0.00 39 1017.3
20260503212553 65 165 1.0 4.0 0.00 0.00 0.00 36 1017.2
20260503212352 65 165 1.0 4.0 0.00 0.00 0.00 36 1017.2
20260503212152 65 333 1.0 4.0 0.00 0.00 0.00 39 1017.3
20260503211952 65 175 1.0 3.0 0.00 0.00 0.00 36 1017.3
20260503211753 65 175 1.0 3.0 0.00 0.00 0.00 35 1017.3
20260503211552 65 175 1.0 3.0 0.00 0.00 0.00 35 1017.3
20260503211151 65 174 1.0 4.0 0.00 0.00 0.00 36 1017.3
20260503210952 65 174 1.0 4.0 0.00 0.00 0.00 36 1017.4
20260503210751 65 175 1.0 4.0 0.00 0.00 0.00 36 1017.4
20260503210550 65 277 1.0 4.0 0.00 0.00 0.00 36 1017.4
20260503210147 65 179 1.0 3.0 0.00 0.00 0.00 36 1017.4
20260503205947 65 349 1.0 3.0 0.00 0.00 0.00 37 1017.4
20260503205748 65 123 1.0 3.0 0.00 0.00 0.00 36 1017.4
20260503205546 65 125 1.0 3.0 0.00 0.00 0.00 35 1017.3
20260503205345 65 327 1.0 5.0 0.00 0.00 0.00 37 1017.3
20260503204744 65 126 2.0 5.0 0.00 0.00 0.00 37 1017.4
20260503204544 65 13 2.0 5.0 0.00 0.00 0.00 38 1017.6
20260503204344 65 11 2.0 5.0 0.00 0.00 0.00 37 1017.5
20260503204142 65 355 1.0 4.0 0.00 0.00 0.00 38 1017.5
20260503203944 64 65 1.0 8.0 0.00 0.00 0.00 38 1017.6
20260503203544 64 276 1.0 8.0 0.00 0.00 0.00 39 1017.7
20260503203340 64 277 1.0 8.0 0.00 0.00 0.00 37 1017.7
20260503202942 64 127 1.0 3.0 0.00 0.00 0.00 37 1017.6
20260503202740 64 292 1.0 3.0 0.00 0.00 0.00 38 1017.6
20260503202540 64 290 1.0 3.0 0.00 0.00 0.00 38 1017.6
20260503202341 64 44 1.0 3.0 0.00 0.00 0.00 39 1017.6
20260503202139 64 44 1.0 3.0 0.00 0.00 0.00 38 1017.7
20260503201939 64 44 1.0 4.0 0.00 0.00 0.00 38 1017.7
20260503201737 64 44 2.0 4.0 0.00 0.00 0.00 38 1017.8
20260503201333 64 38 2.0 5.0 0.00 0.00 0.00 40 1017.9
20260503201132 64 123 2.0 5.0 0.00 0.00 0.00 38 1017.9
20260503200932 64 42 2.0 5.0 0.00 0.00 0.00 39 1017.9
20260503200732 64 150 2.0 5.0 0.00 0.00 0.00 40 1017.9
20260503200531 64 355 1.0 5.0 0.00 0.00 0.00 38 1017.9
20260503200329 64 117 2.0 5.0 0.00 0.00 0.00 38 1017.9
20260503200130 64 155 2.0 5.0 0.00 0.00 0.00 39 1018.0
20260503195932 64 190 2.0 5.0 0.00 0.00 0.00 39 1018.0
20260503195728 64 192 2.0 5.0 0.00 0.00 0.00 38 1018.0
20260503195529 64 5 2.0 5.0 0.00 0.00 0.00 38 1018.1
20260503195329 64 331 2.0 5.0 0.00 0.00 0.00 40 1018.0
20260503195130 63 66 2.0 5.0 0.00 0.00 0.00 39 1018.0
20260503194929 63 0 2.0 6.0 0.00 0.00 0.00 38 1018.0
20260503194729 63 348 2.0 6.0 0.00 0.00 0.00 37 1018.0
20260503194526 63 342 2.0 6.0 0.00 0.00 0.00 37 1018.2
20260503194128 63 25 2.0 6.0 0.00 0.00 0.00 38 1018.2
20260503193525 63 28 1.0 3.0 0.00 0.00 0.00 38 1018.2
20260503193326 63 44 1.0 3.0 0.00 0.00 0.00 38 1018.3
20260503193126 63 86 1.0 3.0 0.00 0.00 0.00 39 1018.3
20260503192925 63 317 2.0 4.0 0.00 0.00 0.00 40 1018.4
20260503192524 63 239 2.0 5.0 0.00 0.00 0.00 39 1018.4
20260503192324 63 84 2.0 5.0 0.00 0.00 0.00 39 1018.4
20260503192124 63 163 2.0 5.0 0.00 0.00 0.00 39 1018.4